Location: Fours
(44.3167°N, 6.7000°E)
Time: 06:29:25
(UTC+00:00)

Cosmos 2369 Rocket - Pass Details

Date: 30 November 2020
Orbit: 829 x 852 km, 71.0° (Epoch: 27 January)

Event Time Altitude Azimuth Distance (km) Brightness Sun altitude
Rises 18:06:52 0° 331° (NNW) 3,420 5.6 -22.8°
Reaches altitude 10° 18:09:21 10° 327° (NNW) 2,478 4.9 -23.3°
Maximum altitude 18:14:55 58° 250° (WSW) 979 2.7 -24.3°
Drops below altitude 10° 18:20:25 10° 173° (S) 2,447 4.6 -25.2°
Sets 18:22:52 0° 169° (S) 3,374 5.3 -25.7°
